COSMOS 1856

Satellite information

Favourite Embed

Satellite Type and Status

PAYLOADIN ORBIT

Key statistics

Satellite COSMOS 1856 at a glance.

Uptime

14015

Days in orbit

Revolutions

≈ 12.5

Per day

Orbit

LEO

Low Earth Orbit

Inclination

74.0

Latest

Satellite identification and parameters

Extended collection of information and parameters for COSMOS 1856.

Object identification

Identified? True

Debris? False

Object name: COSMOS 1856

International designator: 1987-051E

Object number (NORAD): 18117

Object ID (CCSDS): 18117

Country: COMMONWEALTH OF INDEPENDENT STATES (CIS)

Current information (Y/N): Y

RCS size: MEDIUM

Orbital parameters

Period: 114.968 minutes

Inclination: 74.0025 deg

SMA: 7832.077 km

Apoapsis: 1477.445 km

Periapsis: 1430.439 km

RAAN: 163.3854 deg

Eccentricy: 0.00300087

Argument of periapsis: 230.4819 deg

Mean anomaly: 157.8165 deg

Mean motion: 12.52527785 rev/day

Mean motion (dot): -0.0000001 rev/day2

B* drag term: 0.000039967702 1/REarth

Two-line elements (TLE)

Creation date: Oct. 28, 2025, 7:11 p.m.

Reference frame: TEME

Reference center: EARTH

Epoch: Oct. 28, 2025, 2:33 p.m. UTC

TLE line 0: 0 COSMOS 1856

TLE line 1: 1 18117U 87051E 25301.60683574 -.00000010 00000-0 39968-4 0 9990

TLE line 2: 2 18117 74.0025 163.3854 0030009 230.4819 157.8165 12.52527785754369

Live tracking on map

Real-time ground track for satellite COSMOS 1856.

In-orbit conjunctions

There are no conjunctions computed for COSMOS 1856, at the moment. Check back to stay up to date, as we update our databases every day.

Go to all conjunctions

Associated space launch

Military communications satellites

COSMOS 1856 was lifted into orbit during the mission ‘Kosmos-3M | Strela-1M 321-328’, on board a Kosmos-3M space rocket.

The launch took place on June 16, 1987, 5:51 p.m. from 132/1 (132L).

For more information about the launch, click the button.

Launch to space Kosmos-3M | Strela-1M 321-328
Kosmos-3M | Strela-1M 321-328

Agency: N/A

Status: Launch Successful

Launch date: June 16, 1987, 5:51 p.m. UTC

Rocket: Kosmos-3M

Launch pad: 132/1 (132L)

Location: Plesetsk Cosmodrome, Russian Federation

...

Latest news about this satellite

There are no fresh news available about this satellite. Check back as we update our databases every day.


Newsletter sign-up

Weekly statistics, charts and insights to help you stay on top of the space industry.